Weather History for Goteborg Save AFB, Sweden

Change the Weather History Date:

Monday, February 18, 2013

  Actual Average Record
Temperature  
Mean Temperature 35 °F -  
Max Temperature 37 °F - - ()
Min Temperature 33 °F - - ()
Degree Days  
Heating Degree Days 30    
Moisture  
Dew Point 34 °F    
Average Humidity 97    
Maximum Humidity 100    
Minimum Humidity 87    
Precipitation  
Precipitation 0.00 in - - ()
Sea Level Pressure  
Sea Level Pressure 29.97 in    
Wind  
Wind Speed 7 mph ()    
Max Wind Speed 16 mph    
Max Gust Speed -    
Visibility 2.1 miles    
Events Fog , Rain , Snow    
T = Trace of Precipitation, MM = Missing Value Source: Averaged Metar Reports

Daily Weather History Graph

Daily Weather History Graph

Search for Another Location

Airport:

Trip Planner

Search our weather history database for the weather conditions in past years. The results will help you decide how hot, cold, wet, or windy it might be!

Date:

Astronomy

Feb. 18, 2013 Rise Set
Actual Time 7:35 AM CET 5:18 PM CET
Civil Twilight 6:55 AM CET 5:58 PM CET
Nautical Twilight 6:09 AM CET 6:44 PM CET
Astronomical Twilight 5:24 AM CET 7:29 PM CET
Moon 10:14 AM CET (2/18) 2:35 AM CET (2/18)
Length of Visible Light 11h 03m
Length of Day
9h 43m
First Quarter, 56% of the Moon is Illuminated
Feb 18
First Quarter
Feb 25
Full
Mar 4
Last Quarter
Mar 11
New
Mar 19
First Quarter

Hourly Weather History & Observations

Time (CET) Temp. Windchill Dew Point Humidity Pressure Visibility Wind Dir Wind Speed Gust Speed Precip Events Conditions
12:20 AM 33.8 °F 27.0 °F 33.8 °F 100% 30.12 in 0.7 mi SSW 8.1 mph - N/A   Overcast
12:50 AM 33.8 °F 27.7 °F 33.8 °F 100% 30.12 in 0.7 mi SSW 6.9 mph - N/A   Overcast
1:20 AM 33.8 °F 27.7 °F 33.8 °F 100% 30.09 in 0.6 mi SSW 6.9 mph - N/A Fog Fog
1:50 AM 33.8 °F 27.7 °F 33.8 °F 100% 30.09 in 0.6 mi SSW 6.9 mph - N/A Fog Fog
2:20 AM 33.8 °F 27.0 °F 33.8 °F 100% 30.09 in - SSW 8.1 mph - N/A Fog Fog
2:50 AM 33.8 °F 27.0 °F 33.8 °F 100% 30.09 in - SSW 8.1 mph - N/A Fog Fog
3:20 AM 33.8 °F 27.7 °F 33.8 °F 100% 30.06 in - SSW 6.9 mph - N/A Fog Fog
3:50 AM 33.8 °F 27.7 °F 33.8 °F 100% 30.06 in 0.2 mi SSW 6.9 mph - N/A Fog Fog
4:20 AM 33.8 °F 27.7 °F 33.8 °F 100% 30.06 in 0.2 mi South 6.9 mph - N/A Fog Fog
4:50 AM 33.8 °F 27.7 °F 33.8 °F 100% 30.06 in 0.2 mi South 6.9 mph - N/A Fog Fog
5:20 AM 33.8 °F 27.7 °F 33.8 °F 100% 30.06 in 0.2 mi South 6.9 mph - N/A Fog Fog
5:50 AM 33.8 °F 27.7 °F 33.8 °F 100% 30.04 in 0.2 mi South 6.9 mph - N/A Fog Fog
6:20 AM 33.8 °F 27.0 °F 33.8 °F 100% 30.04 in 0.2 mi South 8.1 mph - N/A Fog Fog
6:50 AM 33.8 °F 27.7 °F 33.8 °F 100% 30.04 in - South 6.9 mph - N/A Fog Fog
7:20 AM 33.8 °F 27.7 °F 33.8 °F 100% 30.04 in - South 6.9 mph - N/A Fog Fog
7:50 AM 35.6 °F 29.9 °F 33.8 °F 93% 30.01 in - South 6.9 mph - N/A Fog Fog
8:20 AM 33.8 °F 27.7 °F 33.8 °F 100% 30.01 in - South 6.9 mph - N/A   Light Drizzle
8:50 AM 35.6 °F 29.9 °F 33.8 °F 93% 30.01 in 0.4 mi SSW 6.9 mph - N/A Fog Fog
9:20 AM 35.6 °F 29.9 °F 35.6 °F 100% 30.01 in - SSW 6.9 mph - N/A Fog Fog
9:50 AM 35.6 °F 30.7 °F 35.6 °F 100% 30.01 in 0.4 mi South 5.8 mph - N/A Fog Fog
10:20 AM 35.6 °F 30.7 °F 35.6 °F 100% 30.01 in - South 5.8 mph - N/A Fog Fog
10:50 AM 35.6 °F 29.9 °F 35.6 °F 100% 29.98 in 0.4 mi South 6.9 mph - N/A   Light Drizzle
11:20 AM 35.6 °F 30.7 °F 35.6 °F 100% 29.98 in 0.7 mi SSW 5.8 mph - N/A   Light Drizzle
11:50 AM 37.4 °F 33.8 °F 35.6 °F 93% 29.98 in 0.6 mi South 4.6 mph - N/A Rain Light Rain
12:20 PM 37.4 °F 33.8 °F 35.6 °F 93% 29.95 in 0.6 mi South 4.6 mph - N/A   Drizzle
12:50 PM 37.4 °F 33.8 °F 35.6 °F 93% 29.95 in 0.8 mi South 4.6 mph - N/A   Drizzle
1:20 PM 37.4 °F 32.8 °F 35.6 °F 93% 29.95 in 1.4 mi SSW 5.8 mph - N/A   Drizzle
1:50 PM 37.4 °F 32.8 °F 35.6 °F 93% 29.92 in 1.3 mi South 5.8 mph - N/A   Drizzle
2:20 PM 37.4 °F 32.8 °F 35.6 °F 93% 29.92 in 1.6 mi SSW 5.8 mph - N/A   Drizzle
2:50 PM 37.4 °F 32.1 °F 37.4 °F 100% 29.89 in - WSW 6.9 mph - N/A   Light Drizzle
3:20 PM 37.4 °F 31.4 °F 35.6 °F 93% 29.89 in - WSW 8.1 mph - N/A Rain Light Rain
3:50 PM 35.6 °F 29.9 °F 35.6 °F 100% 29.86 in 2.2 mi West 6.9 mph - N/A Rain Light Rain
4:20 PM 35.6 °F 31.7 °F 35.6 °F 100% 29.86 in 1.7 mi West 4.6 mph - N/A   Drizzle
4:50 PM 35.6 °F 32.8 °F 35.6 °F 100% 29.86 in 1.5 mi WSW 3.5 mph - N/A Rain Light Rain
5:20 PM 35.6 °F 32.8 °F 35.6 °F 100% 29.86 in 1.2 mi West 3.5 mph - N/A Rain Light Rain
5:50 PM 35.6 °F 32.8 °F 35.6 °F 100% 29.86 in 1.2 mi West 3.5 mph - N/A   Drizzle
6:20 PM 35.6 °F 31.7 °F 35.6 °F 100% 29.86 in 1.7 mi North 4.6 mph - N/A   Drizzle
6:50 PM 35.6 °F 31.7 °F 35.6 °F 100% 29.83 in 1.0 mi North 4.6 mph - N/A   Light Drizzle
7:50 PM 35.6 °F 29.2 °F 33.8 °F 93% 29.86 in 6.2 mi NNE 8.1 mph - N/A Rain Light Rain
8:20 PM 33.8 °F 26.4 °F 32.0 °F 93% 29.86 in 4.3 mi NNE 9.2 mph - N/A Snow Light Snow
8:50 PM 33.8 °F 27.7 °F 32.0 °F 93% 29.86 in 6.2 mi NNE 6.9 mph - N/A Rain , Snow Light Rain
9:20 PM 33.8 °F 26.4 °F 32.0 °F 93% 29.86 in 6.2 mi NNE 9.2 mph - N/A Rain Light Rain
9:50 PM 33.8 °F 24.8 °F 32.0 °F 93% 29.89 in 6.2 mi NE 12.7 mph - N/A   Light Drizzle
10:20 PM 33.8 °F 25.8 °F 32.0 °F 93% 29.89 in 6.2 mi NNE 10.4 mph - N/A   Overcast
10:50 PM 33.8 °F 24.8 °F 32.0 °F 93% 29.92 in 6.2 mi NNE 12.7 mph - N/A   Mostly Cloudy
11:20 PM 33.8 °F 23.5 °F 30.2 °F 87% 29.92 in 6.2 mi NE 16.1 mph - N/A   Overcast
11:50 PM 33.8 °F 23.9 °F 30.2 °F 87% 29.92 in 6.2 mi NE 15.0 mph - N/A   Overcast